NAL605 KVLD-KIND

Flight info

Callsign NAL605
Flight time 1h 27m
Altitude FL360
Route JOGOS T493 TIFFT JOHNN Q118 THRSR Q79 IIU HAGAL GIIBS4
Aircraft B739/M-L/N

Departure

Time 2026-05-04 08:02
Airport Valdosta Regional Airport (KVLD)

Arrival

Time 2026-05-04 09:30
Airport Indianapolis International Airport (KIND)
Time Latitude Longitude Altitude Speed Heading
2026-05-04 07:49 30.78750 -83.27257 214 ft 0 kts 82°
2026-05-04 07:53 30.78750 -83.27259 214 ft 1 kts 82°
2026-05-04 07:54 30.78762 -83.27314 214 ft 0 kts 172°
2026-05-04 07:55 30.78752 -83.27314 214 ft 6 kts 180°
2026-05-04 07:55 30.78668 -83.27313 214 ft 16 kts 172°
2026-05-04 07:55 30.78563 -83.27294 214 ft 15 kts 171°
2026-05-04 07:56 30.78463 -83.27276 214 ft 15 kts 171°
2026-05-04 07:56 30.78404 -83.27265 214 ft 16 kts 171°
2026-05-04 07:56 30.78282 -83.27243 214 ft 19 kts 171°
2026-05-04 07:56 30.78144 -83.27216 214 ft 21 kts 171°
2026-05-04 07:57 30.77987 -83.27187 214 ft 24 kts 171°
2026-05-04 07:57 30.77813 -83.27154 214 ft 27 kts 171°
2026-05-04 07:57 30.77635 -83.27121 214 ft 25 kts 171°
2026-05-04 07:57 30.77467 -83.27090 214 ft 22 kts 171°
2026-05-04 07:58 30.77381 -83.27081 214 ft 9 kts 208°
2026-05-04 07:58 30.77366 -83.27120 214 ft 0 kts 262°
2026-05-04 07:58 30.77365 -83.27131 214 ft 6 kts 262°
2026-05-04 07:59 30.77377 -83.27200 214 ft 10 kts 320°
2026-05-04 07:59 30.77427 -83.27219 214 ft 0 kts 351°
2026-05-04 07:59 30.77428 -83.27219 214 ft 0 kts 351°
2026-05-04 08:00 30.77631 -83.27256 214 ft 69 kts 351°
2026-05-04 08:00 30.78365 -83.27392 214 ft 143 kts 351°
2026-05-04 08:00 30.79517 -83.27609 540 ft 180 kts 351°
2026-05-04 08:02 30.89798 -83.31538 5391 ft 268 kts 343°
2026-05-04 08:02 30.91596 -83.32156 6323 ft 271 kts 343°
2026-05-04 08:02 30.93422 -83.32783 7222 ft 275 kts 343°
2026-05-04 08:03 30.95261 -83.33415 8092 ft 279 kts 343°
2026-05-04 08:03 30.97136 -83.34058 8944 ft 283 kts 343°
2026-05-04 08:03 30.99034 -83.34710 9790 ft 286 kts 343°
2026-05-04 08:03 31.00973 -83.35341 10539 ft 295 kts 345°
2026-05-04 08:04 31.03005 -83.35993 11040 ft 312 kts 345°
2026-05-04 08:04 31.05153 -83.36684 11569 ft 328 kts 345°
2026-05-04 08:04 31.07405 -83.37410 12092 ft 344 kts 345°
2026-05-04 08:04 31.09756 -83.38168 12592 ft 360 kts 345°
2026-05-04 08:05 31.12225 -83.38964 13070 ft 376 kts 344°
2026-05-04 08:05 31.14793 -83.39794 13589 ft 389 kts 344°
2026-05-04 08:05 31.17425 -83.40644 14288 ft 395 kts 344°
2026-05-04 08:05 31.20087 -83.41504 15064 ft 400 kts 344°
2026-05-04 08:06 31.22772 -83.42372 15815 ft 404 kts 344°
2026-05-04 08:06 31.25498 -83.43254 16549 ft 409 kts 344°
2026-05-04 08:06 31.28256 -83.44148 17261 ft 413 kts 344°
2026-05-04 08:06 31.31041 -83.45050 17948 ft 417 kts 344°
2026-05-04 08:08 31.45204 -83.60194 22029 ft 443 kts 282°
2026-05-04 08:08 31.45866 -83.63733 22501 ft 447 kts 283°
2026-05-04 08:10 31.52873 -83.92211 25560 ft 468 kts 309°
2026-05-04 08:11 31.55266 -83.94790 25840 ft 470 kts 324°
2026-05-04 08:11 31.60138 -83.97591 26278 ft 473 kts 344°
2026-05-04 08:11 31.63377 -83.98312 26598 ft 474 kts 352°
2026-05-04 08:12 31.66642 -83.98918 26830 ft 477 kts 350°
2026-05-04 08:12 31.69896 -83.99631 27095 ft 479 kts 349°
2026-05-04 08:12 31.73178 -84.00370 27341 ft 480 kts 349°
2026-05-04 08:12 31.76463 -84.01103 27589 ft 482 kts 349°
2026-05-04 08:13 31.79748 -84.01835 27894 ft 482 kts 349°
2026-05-04 08:13 31.83035 -84.02568 28209 ft 481 kts 349°
2026-05-04 08:13 31.86319 -84.03300 28517 ft 480 kts 349°
2026-05-04 08:13 31.89602 -84.04033 28816 ft 480 kts 349°
2026-05-04 08:14 31.92865 -84.04762 29110 ft 479 kts 349°
2026-05-04 08:14 31.96141 -84.05495 29398 ft 479 kts 349°
2026-05-04 08:14 31.99412 -84.06226 29682 ft 478 kts 349°
2026-05-04 08:16 32.22156 -84.11330 31518 ft 474 kts 349°
2026-05-04 08:16 32.25393 -84.12058 31760 ft 474 kts 349°
2026-05-04 08:16 32.28633 -84.12788 31995 ft 473 kts 349°
2026-05-04 08:17 32.31853 -84.13514 32224 ft 473 kts 349°
2026-05-04 08:17 32.35079 -84.14241 32457 ft 472 kts 349°
2026-05-04 08:17 32.38310 -84.14970 32689 ft 472 kts 349°
2026-05-04 08:17 32.41534 -84.15698 32925 ft 472 kts 349°
2026-05-04 08:19 32.63978 -84.20782 34531 ft 468 kts 349°
2026-05-04 08:19 32.67179 -84.21510 34751 ft 468 kts 349°
2026-05-04 08:20 32.70370 -84.22235 34965 ft 467 kts 349°
2026-05-04 08:20 32.73550 -84.22958 35176 ft 467 kts 349°
2026-05-04 08:20 32.76740 -84.23685 35390 ft 466 kts 349°
2026-05-04 08:20 32.79928 -84.24411 35600 ft 466 kts 349°
2026-05-04 08:21 32.83092 -84.25132 35806 ft 466 kts 349°
2026-05-04 08:21 32.86274 -84.25858 35999 ft 465 kts 349°
2026-05-04 08:21 32.92631 -84.27310 35999 ft 465 kts 349°
2026-05-04 08:22 32.98968 -84.28760 36001 ft 465 kts 349°
2026-05-04 08:24 33.24344 -84.34586 36000 ft 465 kts 349°
2026-05-04 08:24 33.30696 -84.36050 36001 ft 465 kts 349°
2026-05-04 08:25 33.37034 -84.37512 36001 ft 465 kts 349°
2026-05-04 08:25 33.43384 -84.38980 36001 ft 465 kts 349°
2026-05-04 08:27 33.68762 -84.44919 36001 ft 465 kts 348°
2026-05-04 08:28 33.75048 -84.46439 36001 ft 465 kts 348°
2026-05-04 08:28 33.81444 -84.47988 36001 ft 465 kts 348°
2026-05-04 08:29 33.87779 -84.49524 36000 ft 465 kts 348°
2026-05-04 08:31 34.13137 -84.55697 36001 ft 465 kts 348°
2026-05-04 08:33 34.38493 -84.61907 36001 ft 465 kts 348°
2026-05-04 08:35 34.63848 -84.68155 36001 ft 465 kts 348°
2026-05-04 08:35 34.70196 -84.69726 36000 ft 465 kts 348°
2026-05-04 08:37 34.92376 -84.75232 36000 ft 465 kts 348°
2026-05-04 08:38 34.98705 -84.76809 36000 ft 465 kts 348°
2026-05-04 08:38 35.05046 -84.78391 36001 ft 465 kts 348°
2026-05-04 08:40 35.30396 -84.84743 36000 ft 465 kts 348°
2026-05-04 08:41 35.36737 -84.86338 36000 ft 465 kts 348°
2026-05-04 08:41 35.43068 -84.87933 36000 ft 465 kts 348°
2026-05-04 08:42 35.49398 -84.89530 36001 ft 465 kts 348°
2026-05-04 08:42 35.55744 -84.91134 36001 ft 465 kts 348°
2026-05-04 08:43 35.62081 -84.92738 36001 ft 465 kts 348°
2026-05-04 08:43 35.68413 -84.94344 36001 ft 465 kts 348°
2026-05-04 08:44 35.74741 -84.95951 36000 ft 465 kts 348°
2026-05-04 08:46 36.00078 -85.02413 36001 ft 465 kts 348°
2026-05-04 08:46 36.06406 -85.04033 36001 ft 465 kts 348°
2026-05-04 08:47 36.12747 -85.05659 36001 ft 465 kts 348°
2026-05-04 08:47 36.19091 -85.07289 36000 ft 465 kts 348°
2026-05-04 08:48 36.25422 -85.08918 36000 ft 465 kts 348°
2026-05-04 08:48 36.31754 -85.10550 36001 ft 465 kts 348°
2026-05-04 08:49 36.38084 -85.12185 36001 ft 465 kts 348°
2026-05-04 08:50 36.60248 -85.17929 36001 ft 465 kts 348°
2026-05-04 08:51 36.66582 -85.19577 36001 ft 465 kts 348°
2026-05-04 08:51 36.72910 -85.21226 36000 ft 465 kts 348°
2026-05-04 08:52 36.79247 -85.22880 36000 ft 465 kts 348°
2026-05-04 08:52 36.85569 -85.24533 36001 ft 465 kts 348°
2026-05-04 08:54 37.10889 -85.31181 36001 ft 465 kts 348°
2026-05-04 08:55 37.17224 -85.32851 36000 ft 465 kts 348°
2026-05-04 08:55 37.23539 -85.34519 36000 ft 465 kts 348°
2026-05-04 09:01 37.89951 -85.52237 36001 ft 466 kts 348°
2026-05-04 09:01 37.96276 -85.53941 36000 ft 466 kts 348°
2026-05-04 09:02 38.02615 -85.55652 36001 ft 466 kts 348°
2026-05-04 09:02 38.08938 -85.57362 35737 ft 465 kts 348°
2026-05-04 09:02 38.12109 -85.58140 35153 ft 464 kts 352°
2026-05-04 09:03 38.15312 -85.58525 34647 ft 461 kts 355°
2026-05-04 09:03 38.18498 -85.58935 34052 ft 460 kts 353°
2026-05-04 09:03 38.21678 -85.59407 33418 ft 460 kts 353°
2026-05-04 09:03 38.24839 -85.59876 32783 ft 460 kts 353°
2026-05-04 09:04 38.28015 -85.60345 32159 ft 459 kts 353°
2026-05-04 09:04 38.31183 -85.60813 31550 ft 457 kts 353°
2026-05-04 09:04 38.34330 -85.61278 30924 ft 456 kts 353°
2026-05-04 09:04 38.37480 -85.61744 30293 ft 455 kts 353°
2026-05-04 09:05 38.40624 -85.62221 29662 ft 458 kts 353°
2026-05-04 09:05 38.43821 -85.62707 28998 ft 465 kts 353°
2026-05-04 09:05 38.47031 -85.63195 28305 ft 468 kts 353°
2026-05-04 09:05 38.50267 -85.63688 27614 ft 469 kts 353°
2026-05-04 09:06 38.52434 -85.64019 27183 ft 470 kts 353°
2026-05-04 09:07 38.74745 -85.67326 23126 ft 449 kts 353°
2026-05-04 09:08 38.77839 -85.67781 22562 ft 445 kts 353°
2026-05-04 09:08 38.80913 -85.68235 21998 ft 442 kts 353°
2026-05-04 09:08 38.83944 -85.68682 21439 ft 438 kts 353°
2026-05-04 09:08 38.86956 -85.69127 20879 ft 434 kts 353°
2026-05-04 09:09 38.89946 -85.69569 20321 ft 431 kts 353°
2026-05-04 09:09 38.92900 -85.70007 19765 ft 427 kts 353°
2026-05-04 09:09 38.95837 -85.70442 19210 ft 424 kts 353°
2026-05-04 09:09 38.98755 -85.70874 18654 ft 420 kts 353°
2026-05-04 09:10 39.01648 -85.71305 18100 ft 417 kts 353°
2026-05-04 09:10 39.04497 -85.71792 17509 ft 414 kts 352°
2026-05-04 09:10 39.07335 -85.72296 16879 ft 410 kts 352°
2026-05-04 09:10 39.10149 -85.72791 16265 ft 406 kts 352°
2026-05-04 09:11 39.12932 -85.73279 15655 ft 401 kts 352°
2026-05-04 09:11 39.15631 -85.74018 15082 ft 396 kts 343°
2026-05-04 09:11 39.18176 -85.75298 14588 ft 389 kts 336°
2026-05-04 09:11 39.20627 -85.76719 14007 ft 385 kts 335°
2026-05-04 09:12 39.23058 -85.78126 13408 ft 381 kts 336°
2026-05-04 09:12 39.25445 -85.79502 12997 ft 373 kts 336°
2026-05-04 09:14 39.39262 -85.90350 11012 ft 302 kts 321°
2026-05-04 09:14 39.40873 -85.92033 10749 ft 294 kts 321°
2026-05-04 09:14 39.42445 -85.93676 10503 ft 287 kts 321°
2026-05-04 09:14 39.43979 -85.95280 10270 ft 281 kts 321°
2026-05-04 09:15 39.45479 -85.96848 10051 ft 274 kts 321°
2026-05-04 09:15 39.46966 -85.98359 9774 ft 272 kts 322°
2026-05-04 09:15 39.48471 -85.99829 9445 ft 271 kts 323°
2026-05-04 09:15 39.49968 -86.01294 9131 ft 269 kts 323°
2026-05-04 09:17 39.61661 -86.13388 6718 ft 272 kts 314°
2026-05-04 09:18 39.62969 -86.15147 6409 ft 272 kts 314°
2026-05-04 09:18 39.64263 -86.16954 6125 ft 271 kts 307°
2026-05-04 09:18 39.64967 -86.19144 6014 ft 260 kts 281°
2026-05-04 09:18 39.64891 -86.21403 5989 ft 246 kts 256°
2026-05-04 09:19 39.64184 -86.23331 6003 ft 231 kts 238°
2026-05-04 09:19 39.63210 -86.24941 6037 ft 224 kts 229°
2026-05-04 09:19 39.62121 -86.26371 6015 ft 224 kts 224°
2026-05-04 09:19 39.61002 -86.27776 6003 ft 224 kts 224°
2026-05-04 09:20 39.59895 -86.29177 5995 ft 219 kts 224°
2026-05-04 09:20 39.58792 -86.30578 6004 ft 224 kts 224°
2026-05-04 09:20 39.57685 -86.31985 6006 ft 224 kts 224°
2026-05-04 09:20 39.56567 -86.33392 6005 ft 224 kts 224°
2026-05-04 09:21 39.55451 -86.34795 6005 ft 224 kts 224°
2026-05-04 09:21 39.54337 -86.36199 5889 ft 222 kts 224°
2026-05-04 09:21 39.53236 -86.37585 5521 ft 220 kts 224°
2026-05-04 09:21 39.52142 -86.38961 5150 ft 218 kts 224°
2026-05-04 09:22 39.51066 -86.40314 4786 ft 215 kts 224°
2026-05-04 09:22 39.49996 -86.41663 4452 ft 215 kts 224°
2026-05-04 09:22 39.48914 -86.43025 4308 ft 218 kts 224°
2026-05-04 09:22 39.47830 -86.44393 4315 ft 217 kts 224°
2026-05-04 09:23 39.46754 -86.45769 4467 ft 218 kts 226°
2026-05-04 09:23 39.46087 -86.47504 4347 ft 219 kts 258°
2026-05-04 09:23 39.46340 -86.49417 4295 ft 219 kts 295°
2026-05-04 09:23 39.47423 -86.50758 4248 ft 219 kts 331°
2026-05-04 09:25 39.56476 -86.45494 4099 ft 207 kts 34°
2026-05-04 09:25 39.57670 -86.44450 3960 ft 207 kts 34°
2026-05-04 09:26 39.58863 -86.43408 3814 ft 206 kts 34°
2026-05-04 09:26 39.60054 -86.42369 3598 ft 206 kts 34°
2026-05-04 09:26 39.61253 -86.41373 3320 ft 205 kts 33°
2026-05-04 09:26 39.62371 -86.40244 2989 ft 202 kts 40°
2026-05-04 09:27 39.63368 -86.38992 2666 ft 193 kts 45°
2026-05-04 09:27 39.64258 -86.37794 2373 ft 177 kts 46°
2026-05-04 09:27 39.65094 -86.36702 2104 ft 164 kts 45°
2026-05-04 09:27 39.65861 -86.35732 1900 ft 146 kts 44°
2026-05-04 09:28 39.66571 -86.34837 1771 ft 139 kts 44°
2026-05-04 09:28 39.67265 -86.33956 1602 ft 140 kts 44°
2026-05-04 09:28 39.67954 -86.33078 1400 ft 139 kts 44°
2026-05-04 09:28 39.68642 -86.32199 1218 ft 139 kts 44°
2026-05-04 09:29 39.69329 -86.31324 1037 ft 138 kts 44°
2026-05-04 09:29 39.70012 -86.30456 856 ft 138 kts 44°
2026-05-04 09:29 39.70637 -86.29663 808 ft 97 kts 44°
2026-05-04 09:29 39.70992 -86.29207 808 ft 54 kts 45°
2026-05-04 09:30 39.71179 -86.28969 808 ft 32 kts 44°
2026-05-04 09:30 39.71335 -86.28771 808 ft 31 kts 44°
2026-05-04 09:30 39.71493 -86.28571 808 ft 34 kts 44°
2026-05-04 09:30 39.71657 -86.28360 808 ft 16 kts 44°
2026-05-04 09:31 39.71682 -86.28279 808 ft 12 kts 95°
2026-05-04 09:31 39.71647 -86.28154 808 ft 16 kts 107°
2026-05-04 09:31 39.71640 -86.27998 808 ft 19 kts 67°
2026-05-04 09:31 39.71725 -86.27907 808 ft 0 kts 33°
2026-05-04 09:32 39.71726 -86.27855 808 ft 10 kts 89°
2026-05-04 09:34 39.71739 -86.27231 808 ft 5 kts 135°
2026-05-04 09:34 39.71729 -86.27218 808 ft 0 kts 135°